TimeCEST,TemperatureF,Dew PointF,Humidity,Sea Level PressureIn,VisibilityMPH,Wind Direction,Wind SpeedMPH,Gust SpeedMPH,PrecipitationIn,Events,Conditions,WindDirDegrees,DateUTC
2:00 AM,48,42,72,29.96,,NNW,11.2,,,,,340,2012-10-08 00:00:00
4:45 AM,44.6,41.0,87,30.04,-9999.0,NW,5.8,-,N/A,,Clear,310,2012-10-08 02:45:00
5:45 AM,42.8,39.2,87,30.04,-9999.0,WNW,5.8,-,N/A,,Clear,290,2012-10-08 03:45:00
6:15 AM,42.8,39.2,87,30.04,-9999.0,West,2.3,-,N/A,,Clear,270,2012-10-08 04:15:00
6:45 AM,41.0,37.4,87,30.06,-9999.0,North,2.3,-,N/A,,Clear,360,2012-10-08 04:45:00
7:00 AM,-9999,-9999,N/A,-9999,-9999.0,West,5.8,-,N/A,,Clear,280,2012-10-08 05:00:00
7:15 AM,41.0,39.2,93,30.06,-9999.0,WSW,2.3,-,N/A,,Clear,240,2012-10-08 05:15:00
7:45 AM,41.0,37.4,87,30.06,-9999.0,Calm,Calm,-,N/A,,Clear,0,2012-10-08 05:45:00
8:00 AM,40,38,89,30.09,19,Calm,Calm,,,,Partly Cloudy,,2012-10-08 06:00:00
8:15 AM,44.6,42.8,93,30.09,-9999.0,West,1.2,-,N/A,,Clear,260,2012-10-08 06:15:00
8:45 AM,46.4,42.8,87,30.09,-9999.0,West,4.6,-,N/A,,Clear,270,2012-10-08 06:45:00
9:15 AM,48.2,41.0,76,30.09,-9999.0,WNW,8.1,-,N/A,,Clear,290,2012-10-08 07:15:00
9:45 AM,50.0,41.0,71,30.09,-9999.0,WNW,6.9,-,N/A,,Clear,290,2012-10-08 07:45:00
10:00 AM,-9999,-9999,N/A,-9999,6.2,West,8.1,-,N/A,,Scattered Clouds,280,2012-10-08 08:00:00
10:15 AM,51.8,42.8,71,30.09,6.2,West,8.1,-,N/A,,Partly Cloudy,280,2012-10-08 08:15:00
10:45 AM,53.6,42.8,67,30.09,6.2,WNW,8.1,-,N/A,,Partly Cloudy,300,2012-10-08 08:45:00
11:15 AM,55.4,42.8,63,30.09,6.2,West,5.8,-,N/A,,Partly Cloudy,270,2012-10-08 09:15:00
11:45 AM,55.4,39.2,54,30.09,6.2,WNW,4.6,-,N/A,,Scattered Clouds,300,2012-10-08 09:45:00
12:15 PM,55.4,41.0,58,30.09,6.2,WSW,4.6,-,N/A,,Scattered Clouds,240,2012-10-08 10:15:00
12:45 PM,57.2,39.2,51,30.09,6.2,WSW,6.9,-,N/A,,Partly Cloudy,250,2012-10-08 10:45:00
1:00 PM,-9999,-9999,N/A,-9999,6.2,West,8.1,-,N/A,,Scattered Clouds,270,2012-10-08 11:00:00
1:15 PM,57.2,39.2,51,30.09,6.2,West,6.9,-,N/A,,Scattered Clouds,260,2012-10-08 11:15:00
2:00 PM,58,39,38,30.09,25,WNW,4.5,,,,Partly Cloudy,290,2012-10-08 12:00:00
2:15 PM,57.2,35.6,44,30.09,6.2,WNW,5.8,-,N/A,,Scattered Clouds,290,2012-10-08 12:15:00
2:45 PM,57.2,35.6,44,30.06,6.2,WNW,2.3,-,N/A,,Scattered Clouds,300,2012-10-08 12:45:00
3:15 PM,59.0,37.4,45,30.06,6.2,North,3.5,-,N/A,,Scattered Clouds,350,2012-10-08 13:15:00
3:45 PM,59.0,35.6,42,30.06,6.2,WSW,5.8,-,N/A,,Scattered Clouds,240,2012-10-08 13:45:00
4:00 PM,-9999,-9999,N/A,-9999,-9999.0,Variable,3.5,-,N/A,,Clear,0,2012-10-08 14:00:00
4:15 PM,59.0,37.4,45,30.06,6.2,WSW,6.9,-,N/A,,Partly Cloudy,240,2012-10-08 14:15:00
4:45 PM,57.2,37.4,48,30.04,6.2,WSW,5.8,-,N/A,,Scattered Clouds,240,2012-10-08 14:45:00
5:15 PM,55.4,39.2,54,30.06,6.2,WSW,4.6,-,N/A,,Mostly Cloudy,250,2012-10-08 15:15:00
5:45 PM,55.4,39.2,54,30.06,6.2,WSW,3.5,-,N/A,,Mostly Cloudy,240,2012-10-08 15:45:00
6:15 PM,55.4,39.2,54,30.06,6.2,WSW,3.5,-,N/A,,Mostly Cloudy,250,2012-10-08 16:15:00
6:42 PM,53.6,39.2,58,30.06,-9999.0,SW,1.2,-,N/A,,Unknown,230,2012-10-08 16:42:00
7:15 PM,51.8,42.8,71,30.06,6.2,SSE,2.3,-,N/A,,Mostly Cloudy,150,2012-10-08 17:15:00
8:00 PM,51,42,63,30.06,22,South,2.2,,,,Partly Cloudy,180,2012-10-08 18:00:00
10:00 PM,-9999,-9999,N/A,-9999,-9999.0,North,-9999.0,-,N/A,,Unknown,0,2012-10-08 20:00:00